STARLINK-2728 (48478 NORAD) Tracking and Keplerian Element Data

This shows tracking and keplerian element data for the satellite.

Feedback or suggestion? Click here.




ElementValue
Catalog48478
NameSTARLINK-2728
Epoch Orbit359
Epoch Day214.91667824
Epoch Year2021
RAAN172.399
Inclination53.0542
Eccentricity0.0002015
Argument of Perigee76.8278
Mean Anonmoly1.9685
Mean Motion15.0642439
Decay Rate4.002E-05
L11 48478U 21040BC 21214.91667824 .00004002 00000-0 28724-3 0 9993
L22 48478 53.0542 172.3990 0002015 76.8278 1.9685 15.06424390 3599

Live tracking and technical data element details for STARLINK-2728 (NORAD 48478). STARLINK-2728 can be tracked NOW for your location showing map with azimuth and elevation plus other details from your city location.

Track the satellite on the map from your city or location and see movement details for azimuth, elevation, latitude, longitude, range, height, and movement on the map or in text.







IsCatalogInMostPopularTable: catalog: 48478, numindb: 24
Update: records affected: 1



GetName: 48478 STARLINK-2728

Hit Count: updated at: Tue, 03 Aug 2021 21:41:18 GMT